CZ-4 DEB

Satellite information

Favourite Embed

Satellite Type and Status

DEBRISIN ORBIT

Key statistics

Satellite CZ-4 DEB at a glance.

Uptime

12726

Days in orbit

Revolutions

≈ 14.3

Per day

Orbit

SSO

Sun Synchronous Orbit

Inclination

98.5

Latest

Satellite identification and parameters

Extended collection of information and parameters for CZ-4 DEB.

Object identification

Identified? True

Debris? True

Object name: CZ-4 DEB

International designator: 1990-081DB

Object number (NORAD): 37615

Object ID (CCSDS): 37615

Country: PEOPLES REPUBLIC OF CHINA (PRC)

Current information (Y/N): Y

RCS size: SMALL

Orbital parameters

Period: 100.449 minutes

Inclination: 98.5312 deg

SMA: 7158.001 km

Apoapsis: 789.456 km

Periapsis: 770.276 km

RAAN: 181.1145 deg

Eccentricy: 0.0013397

Argument of periapsis: 214.9232 deg

Mean anomaly: 145.1075 deg

Mean motion: 14.33557561 rev/day

Mean motion (dot): 0.00000825 rev/day2

B* drag term: 0.00031359 1/REarth

Two-line elements (TLE)

Creation date: July 1, 2025, 6:11 p.m.

Reference frame: TEME

Reference center: EARTH

Epoch: July 1, 2025, 10:59 a.m. UTC

TLE line 0: 0 CZ-4 DEB

TLE line 1: 1 37615U 90081DB 25182.45826186 .00000825 00000-0 31359-3 0 9997

TLE line 2: 2 37615 98.5312 181.1145 0013397 214.9232 145.1075 14.33557561574435

Live tracking on map

Real-time ground track for satellite CZ-4 DEB.

In-orbit conjunctions

A list of the most updated potential collisions computed for object CZ-4 DEB.

Target Orbit TCA Probability of collision Miss distance Type
CZ-6A DEB LEO 2025-05-20 08:00:03 0.0002513759 96.0 (m) DEBRIS
CZ-6A DEB LEO 2025-05-18 00:36:29 0.0001375909 317.0 (m) DEBRIS
NOAA 16 DEB SSO 2024-11-09 06:15:50 0.0002278691 954.0 (m) DEBRIS
COSMOS 1486 LEO 2024-06-20 23:50:31 0.001027099 127.0 (m) PAYLOAD

Associated space launch

Chinese polar orbiting meteorological satellite

CZ-4 DEB was lifted into orbit during the mission ‘Long March 4A | Feng Yun 1B’, on board a Long March 4A space rocket.

The launch took place on Sept. 3, 1990, 12:53 a.m. from Launch Complex 7.

For more information about the launch, click the button.

Launch to space Long March 4A | Feng Yun 1B
Long March 4A | Feng Yun 1B

Agency: N/A

Status: Launch Successful

Launch date: Sept. 3, 1990, 12:53 a.m. UTC

Rocket: Long March 4A

Launch pad: Launch Complex 7

Location: Taiyuan Satellite Launch Center, People's Republic of China

...

Latest news about this satellite

There are no fresh news available about this satellite. Check back as we update our databases every day.


Newsletter sign-up

Weekly statistics, charts and insights to help you stay on top of the space industry.